STARLINK-3831, 52332

Orbit data source: Space-Track

STARLINK-3831, 52332 is a payload satellite owned by SpaceX/Seattle (US) in LEO that was launched on Fri, 29 Apr 2022 UTC via an FALCON 9 launch vehicle from the Air Force Eastern Test Range (AFETR). Payload-class satellites include a variety of spacecraft equipped with specific instruments for various scientific and technological missions. These include communications satellites like Starlink; space stations such as the ISS; scientific satellites like the Hubble; Earth observation satellites from companies like Planet Labs, Umbra, and HawkEye 360; GPS; miniature CubeSats for education and research; and military/defense satellites.

Loading next visibility...
Identifier
52332, 2022-045B
Orbit
LEO
Country
Flag of USUS
Related business
Manufacturer
SpaceX/Seattle
Mission
Operational Commercial Communications
Bus & Motor
STARLINK, Unknown motor
Mass
297 kg wet, ~275 kg dry
Launch date (UTC)
2022-04-29 (4 years ago)
Launch vehicle
FALCON 9
Launch site
Air Force Eastern Test Range (AFETR)
Object type
Payload
Rocket body
Debris
Shape & HBR
Box + 1 Pan, 10.1 m
Radar Cross Section
11.087 m², Large (>1 m²)

Expand to show TLE details & history
Last TLE update: 5 hours ago

TLE from 5 hours ago
0 STARLINK-3831
1 52332U 22045B   26119.92937116 -.00003999  00000-0 -23352-3 0  9995
2 52332  53.2191 339.1065 0001393  59.3623 300.7506 15.08806112223379
Epoch: 2026-04-29T22:18Z
TLE epoch observation values (Epoch: 2026-04-29T22:18:17.668Z)
Latitude
-0.00004°
Longitude
146.64957°
Altitude
540.252 km
Speed
7.594 km/s
True Right ascension
22h 36m 25s
True Declination
0° 00' 00"
Sunlit
Object was in daylight at epoch
Visualization orbit readout
Latitude
Unknown
Longitude
Unknown
Altitude
Unknown
Speed
Unknown
Apparent Right ascension
Unknown
Apparent Declination
Unknown
Sunlit
N/A
Visualization observer readout
Local Sidereal Time
11:14:27
Azimuth
Unknown
Elevation
Unknown
Doppler factor
Unknown
Orbital elements
Apogee altitude
541.055 km
Perigee altitude
539.128 km
Semi-major axis
6,918.229 km
Eccentricity
0.00014
Inclination
53.2191°
RAAN
339.1065°
Arg. of periapsis
59.3623°
True anomaly
300.73688°
Mean anomaly
300.7506°
Eccentric anomaly
300.74374°
Mean motion
3.77182 °/min
Orbital period
95.44 mins
BSTAR
-0.00023352
Loading maneuver chart data...
Computing Atmospheric mass density...

Documentation

Showing up to 5 results
|